This is the latest recevied weather packets stored in our database for station/object SV9TNF-1. If no packets are shown the sender has not sent any weather packets the latest 10 day(s).
| Time | Temp. | Humidity | Pressure | Rain* | Wind** | Luminosity | Snow |
|---|---|---|---|---|---|---|---|
| 1778144454 | 22.78° C | 53% | 1006.8 hPa | 0 mm | 5.81 m/s, 118° | - | - |
| 1778144154 | 23.33° C | 52% | 1006.8 hPa | 0 mm | 4.47 m/s, 115° | - | - |
| 1778143854 | 23.33° C | 52% | 1006.8 hPa | 0 mm | 3.58 m/s, 100° | - | - |
| 1778143553 | 23.33° C | 53% | 1007.5 hPa | 0 mm | 1.79 m/s, 111° | - | - |
| 1778143253 | 22.78° C | 53% | 1007.5 hPa | 0 mm | 7.6 m/s, 101° | - | - |
| 1778142953 | 22.78° C | 50% | 1006.8 hPa | 0 mm | 5.81 m/s, 104° | - | - |
| 1778142653 | 23.33° C | 49% | 1006.8 hPa | 0 mm | 6.71 m/s, 134° | - | - |
| 1778142353 | 22.78° C | 52% | 1006.8 hPa | 0 mm | 7.15 m/s, 112° | - | - |
| 1778142053 | 23.33° C | 50% | 1006.8 hPa | 0 mm | 6.26 m/s, 126° | - | - |
| 1778141753 | 23.33° C | 47% | 1006.8 hPa | 0 mm | 4.02 m/s, 91° | - | - |
| 1778141453 | 22.78° C | 47% | 1006.4 hPa | 0 mm | 4.47 m/s, 110° | - | - |
| 1778141153 | 22.78° C | 48% | 1006.4 hPa | 0 mm | 4.92 m/s, 135° | - | - |
| 1778140853 | 22.22° C | 51% | 1006.4 hPa | 0 mm | 5.81 m/s, 119° | - | - |
| 1778140553 | 22.22° C | 51% | 1006.4 hPa | 0 mm | 4.47 m/s, 99° | - | - |
| 1778140253 | 22.22° C | 51% | 1006.4 hPa | 0 mm | 8.05 m/s, 123° | - | - |
| 1778139952 | 22.22° C | 51% | 1006.4 hPa | 0 mm | 4.02 m/s, 106° | - | - |
| 1778139652 | 21.67° C | 49% | 1006.4 hPa | 0 mm | 5.81 m/s, 79° | - | - |
| 1778139352 | 21.67° C | 50% | 1006.4 hPa | 0 mm | 5.81 m/s, 119° | - | - |
| 1778139052 | 21.67° C | 51% | 1006.4 hPa | 0 mm | 4.92 m/s, 122° | - | - |
| 1778138752 | 22.22° C | 49% | 1006.4 hPa | 0 mm | 3.13 m/s, 135° | - | - |
| 1778138452 | 21.67° C | 51% | 1006.4 hPa | 0 mm | 3.13 m/s, 128° | - | - |
| 1778138152 | 22.22° C | 50% | 1006.4 hPa | 0 mm | 1.79 m/s, 114° | - | - |
| 1778137852 | 22.22° C | 48% | 1006.4 hPa | 0 mm | 1.79 m/s, 117° | - | - |
| 1778137552 | 21.67° C | 49% | 1006.4 hPa | 0 mm | 3.13 m/s, 118° | - | - |
| 1778137252 | 21.67° C | 55% | 1006.4 hPa | 0 mm | 1.34 m/s, 109° | - | - |
* Rain latest hour (hover to see other rain measurements)
** Current wind speed in m/s (hover to see current wind gust speed)